QPF
0.00 0.00 0.00 0.00 0.00 0.00 0.00 0.00 0.00 0.00 0.00 0.00 0.00 0.00 0.00 0.00 0.00 0.00 0.00 0.00 0.00 0.00 0.00 0.01 0.01 0.00 0.00 0.00 0.00 0.00 0.00 0.00 0.00 0.00 0.00 0.00 0.00 0.00 0.00 0.00 0.00 0.00 0.00 0.00 0.00 0.00 0.00 0.00 0.00
0.00 0.00 0.00 0.00 0.00 0.00 0.00 0.00 0.00 0.00 0.00 0.00 0.00 0.00 0.00 0.00 0.00 0.00 0.00 0.00 0.00 0.00 0.00 0.01 0.00 0.00 0.00 0.00 0.00 0.00 0.00 0.00 0.00 0.00 0.00 0.00 0.00 0.00 0.00 0.00 0.00 0.00 0.00 0.00 0.00 0.00 0.00 0.00 0.00
0.00 0.00 0.00 0.00 0.00 0.00 0.00 0.00 0.00 0.00 0.00 0.00 0.00 0.00 0.00 0.00 0.00 0.00 0.00 0.00 0.00 0.00 0.00 0.00 0.00 0.00 0.00 0.00 0.00 0.00 0.00 0.00 0.00 0.00 0.00 0.00 0.00 0.00 0.00 0.00 0.00 0.00 0.00 0.00 0.00 0.00 0.00 0.00 0.00
0.00 0.00 0.00 0.00 0.00 0.00 0.00 0.00 0.00 0.00 0.00 0.00 0.00 0.00 0.00 0.00 0.00 0.00 0.00 0.00 0.00 0.00 0.00 0.00 0.00 0.00 0.00 0.00 0.00 0.00 0.00 0.00 0.00 0.00 0.00 0.00 0.00 0.00 0.00 0.00 0.00 0.00 0.00 0.00 0.00 0.00 0.00 0.00 0.00
0.00 0.00 0.00 0.00 0.00 0.00 0.00 0.00 0.00 0.00 0.00 0.00 0.00 0.00 0.00 0.00 0.00 0.00 0.00 0.00 0.00 0.00 0.00 0.00 0.00 0.00 0.00 0.00 0.00 0.00 0.00 0.00 0.00 0.00 0.00 0.00 0.00 0.00 0.00 0.00 0.00 0.00 0.00 0.00 0.00 0.00 0.00 0.00 0.00
0.00 0.00 0.00 0.00 0.00 0.00 0.00 0.00 0.00 0.00 0.00 0.00 0.00 0.00 0.00 0.00 0.00 0.00 0.00 0.00 0.00 0.00 0.00 0.00 0.00 0.00 0.00 0.00 0.00 0.00 0.00 0.00 0.00 0.00 0.00 0.00 0.00 0.00 0.00 0.00 0.00 0.00 0.00 0.00 0.00 0.00 0.00 0.00 0.00
0.00 0.00 0.00 0.00 0.00 0.00 0.00 0.00 0.00 0.00 0.00 0.00 0.00 0.00 0.00 0.00 0.00 0.00 0.00 0.00 0.00 0.00 0.00 0.00 0.00 0.00 0.00 0.00 0.00 0.00 0.00 0.00 0.00 0.00 0.00 0.00 0.00 0.00 0.00 0.00 0.00 0.00 0.00 0.00 0.00 0.00 0.00 0.00 0.00
0.00 0.00 0.00 0.00 0.00 0.00 0.00 0.00 0.00 0.00 0.00 0.00 0.00 0.00 0.00 0.00 0.00 0.00 0.00 0.00 0.00 0.00 0.00 0.00 0.00 0.00 0.00 0.00 0.00 0.00 0.00 0.00 0.00 0.00 0.00 0.00 0.00 0.00 0.00 0.00 0.00 0.00 0.00 0.00 0.00 0.00 0.00 0.00 0.00
0.00 0.00 0.00 0.00 0.00 0.00 0.00 0.00 0.00 0.00 0.00 0.00 0.00 0.00 0.00 0.00 0.00 0.00 0.00 0.00 0.00 0.00 0.00 0.00 0.00 0.00 0.00 0.00 0.00 0.00 0.00 0.00 0.00 0.00 0.00 0.00 0.00 0.00 0.00 0.00 0.00 0.00 0.00 0.00 0.00 0.00 0.00 0.00 0.00
0.00 0.00 0.00 0.00 0.00 0.00 0.00 0.00 0.00 0.00 0.00 0.00 0.00 0.00 0.02 0.01 0.00 0.00 0.00 0.00 0.00 0.00 0.00 0.00 0.00 0.00 0.00 0.00 0.00 0.00 0.00 0.00 0.00 0.00 0.00 0.00 0.00 0.00 0.00 0.00 0.00 0.00 0.00 0.00 0.00 0.00 0.00 0.00 0.00
0.00 0.00 0.00 0.00 0.00 0.00 0.00 0.00 0.00 0.00 0.00 0.00 0.00 0.02 0.10 0.13 0.05 0.01 0.00 0.00 0.00 0.00 0.00 0.00 0.00 0.00 0.00 0.00 0.00 0.00 0.00 0.00 0.00 0.00 0.00 0.00 0.00 0.00 0.00 0.00 0.00 0.00 0.00 0.00 0.00 0.00 0.00 0.00 0.00
0.00 0.00 0.00 0.00 0.00 0.00 0.00 0.00 0.00 0.00 0.00 0.00 0.00 0.01 0.07 0.09 0.11 0.07 0.01 0.00 0.00 0.00 0.00 0.00 0.00 0.00 0.00 0.00 0.00 0.00 0.00 0.00 0.00 0.00 0.00 0.00 0.00 0.00 0.00 0.00 0.00 0.00 0.00 0.00 0.00 0.00 0.00 0.00 0.00
0.00 0.00 0.00 0.00 0.00 0.00 0.00 0.00 0.00 0.00 0.00 0.00 0.00 0.02 0.04 0.11 0.05 0.03 0.02 0.00 0.00 0.00 0.00 0.00 0.00 0.00 0.00 0.00 0.00 0.00 0.00 0.00 0.00 0.00 0.00 0.00 0.00 0.00 0.00 0.00 0.00 0.00 0.00 0.00 0.00 0.00 0.00 0.00 0.00
0.00 0.00 0.00 0.00 0.00 0.00 0.00 0.00 0.00 0.00 0.00 0.00 0.00 0.00 0.01 0.05 0.09 0.06 0.01 0.01 0.00 0.00 0.00 0.00 0.00 0.00 0.00 0.00 0.00 0.00 0.00 0.00 0.00 0.00 0.00 0.00 0.00 0.00 0.00 0.00 0.00 0.00 0.00 0.00 0.00 0.00 0.00 0.00 0.00
0.00 0.00 0.00 0.00 0.00 0.00 0.00 0.00 0.00 0.00 0.00 0.00 0.00 0.00 0.00 0.00 0.04 0.07 0.06 0.05 0.02 0.01 0.00 0.00 0.00 0.00 0.00 0.00 0.00 0.00 0.00 0.00 0.00 0.00 0.00 0.00 0.00 0.00 0.00 0.00 0.00 0.00 0.00 0.00 0.00 0.00 0.00 0.00 0.00
0.00 0.00 0.00 0.00 0.00 0.00 0.00 0.00 0.00 0.00 0.00 0.00 0.00 0.00 0.00 0.00 0.00 0.04 0.07 0.05 0.01 0.00 0.00 0.00 0.00 0.00 0.00 0.00 0.00 0.00 0.00 0.00 0.00 0.00 0.00 0.00 0.00 0.00 0.00 0.00 0.00 0.00 0.00 0.00 0.00 0.00 0.00 0.00 0.00
0.00 0.00 0.00 0.00 0.00 0.00 0.00 0.00 0.00 0.00 0.00 0.00 0.00 0.00 0.00 0.00 0.00 0.01 0.03 0.04 0.01 0.02 0.00 0.00 0.00 0.00 0.00 0.00 0.00 0.00 0.00 0.00 0.00 0.00 0.00 0.00 0.00 0.00 0.00 0.00 0.00 0.00 0.00 0.00 0.00 0.00 0.00 0.00 0.00
0.00 0.00 0.00 0.00 0.00 0.00 0.00 0.00 0.00 0.00 0.00 0.00 0.00 0.00 0.00 0.00 0.00 0.00 0.00 0.05 0.05 0.01 0.05 0.01 0.00 0.00 0.00 0.00 0.00 0.00 0.00 0.00 0.00 0.00 0.00 0.00 0.00 0.00 0.00 0.00 0.00 0.00 0.00 0.00 0.00 0.00 0.00 0.00 0.00
0.00 0.00 0.00 0.00 0.00 0.00 0.00 0.00 0.00 0.00 0.00 0.00 0.00 0.00 0.00 0.00 0.00 0.00 0.00 0.03 0.04 0.00 0.04 0.04 0.00 0.00 0.00 0.00 0.00 0.00 0.00 0.00 0.00 0.00 0.00 0.00 0.00 0.00 0.00 0.00 0.00 0.00 0.00 0.00 0.00 0.00 0.00 0.00 0.00
0.00 0.00 0.00 0.00 0.00 0.00 0.00 0.00 0.00 0.00 0.00 0.00 0.00 0.00 0.00 0.00 0.00 0.00 0.00 0.02 0.01 0.00 0.02 0.05 0.03 0.01 0.00 0.00 0.00 0.00 0.00 0.00 0.00 0.00 0.00 0.00 0.00 0.00 0.00 0.00 0.00 0.00 0.00 0.00 0.00 0.00 0.00 0.00 0.00
0.00 0.00 0.00 0.00 0.00 0.00 0.00 0.00 0.00 0.00 0.00 0.00 0.00 0.00 0.00 0.00 0.00 0.00 0.01 0.01 0.01 0.00 0.01 0.04 0.06 0.03 0.01 0.00 0.00 0.00 0.00 0.00 0.00 0.00 0.00 0.00 0.00 0.00 0.00 0.00 0.00 0.00 0.00 0.00 0.00 0.00 0.00 0.00 0.00
0.00 0.00 0.00 0.00 0.01 0.01 0.00 0.01 0.00 0.00 0.00 0.00 0.00 0.00 0.00 0.00 0.00 0.01 0.02 0.01 0.00 0.00 0.00 0.02 0.04 0.03 0.01 0.00 0.00 0.00 0.00 0.00 0.00 0.00 0.00 0.00 0.00 0.00 0.00 0.00 0.00 0.00 0.00 0.00 0.00 0.00 0.00 0.00 0.00
0.00 0.00 0.00 0.00 0.02 0.01 0.00 0.01 0.00 0.00 0.00 0.00 0.00 0.00 0.00 0.00 0.00 0.00 0.01 0.02 0.01 0.00 0.00 0.01 0.01 0.02 0.01 0.01 0.00 0.00 0.00 0.00 0.00 0.00 0.00 0.00 0.00 0.00 0.00 0.00 0.00 0.00 0.00 0.00 0.00 0.00 0.00 0.00 0.00
0.00 0.00 0.00 0.00 0.01 0.01 0.00 0.03 0.01 0.00 0.00 0.00 0.00 0.00 0.00 0.00 0.00 0.00 0.05 0.07 0.02 0.02 0.01 0.00 0.01 0.02 0.02 0.01 0.00 0.00 0.00 0.00 0.00 0.00 0.00 0.00 0.00 0.00 0.00 0.00 0.00 0.00 0.00 0.00 0.00 0.00 0.00 0.00 0.00
0.00 0.00 0.00 0.00 0.01 0.02 0.00 0.00 0.00 0.00 0.00 0.00 0.00 0.00 0.00 0.00 0.00 0.00 0.01 0.02 0.01 0.02 0.01 0.00 0.01 0.02 0.06 0.02 0.00 0.00 0.00 0.00 0.00 0.00 0.00 0.00 0.00 0.00 0.00 0.00 0.00 0.00 0.00 0.00 0.00 0.00 0.00 0.00 0.00
0.00 0.00 0.00 0.00 0.00 0.00 0.00 0.00 0.00 0.00 0.00 0.00 0.00 0.00 0.00 0.00 0.00 0.00 0.00 0.03 0.05 0.08 0.05 0.02 0.01 0.02 0.04 0.04 0.02 0.01 0.01 0.01 0.01 0.00 0.00 0.00 0.00 0.00 0.00 0.00 0.00 0.00 0.00 0.00 0.00 0.00 0.00 0.00 0.00
0.00 0.00 0.00 0.03 0.00 0.00 0.00 0.00 0.00 0.00 0.00 0.00 0.00 0.00 0.00 0.00 0.00 0.01 0.03 0.03 0.02 0.04 0.04 0.03 0.02 0.02 0.03 0.03 0.03 0.02 0.05 0.10 0.11 0.09 0.04 0.01 0.00 0.00 0.00 0.00 0.00 0.00 0.00 0.00 0.00 0.00 0.00 0.00 0.00
0.00 0.00 0.00 0.02 0.03 0.01 0.00 0.00 0.00 0.00 0.00 0.00 0.00 0.00 0.01 0.02 0.02 0.06 0.07 0.08 0.03 0.02 0.02 0.02 0.02 0.04 0.04 0.02 0.02 0.02 0.02 0.04 0.03 0.02 0.01 0.00 0.00 0.00 0.00 0.00 0.00 0.00 0.00 0.00 0.00 0.00 0.00 0.00 0.00
0.00 0.00 0.00 0.01 0.02 0.07 0.08 0.00 0.00 0.00 0.00 0.00 0.00 0.00 0.01 0.06 0.07 0.08 0.14 0.19 0.11 0.04 0.03 0.03 0.04 0.05 0.09 0.04 0.02 0.01 0.00 0.01 0.00 0.00 0.00 0.00 0.00 0.00 0.00 0.00 0.00 0.00 0.00 0.00 0.00 0.00 0.00 0.00 0.00
0.00 0.00 0.00 0.00 0.00 0.05 0.06 0.01 0.00 0.00 0.00 0.00 0.00 0.00 0.00 0.03 0.03 0.04 0.13 0.21 0.18 0.11 0.07 0.07 0.06 0.09 0.10 0.06 0.02 0.00 0.00 0.00 0.00 0.00 0.00 0.00 0.00 0.00 0.00 0.00 0.00 0.00 0.00 0.00 0.00 0.00 0.00 0.00 0.00
MSLP
1014.36 1014.06 1014.11 1014.21 1015.24 1015.27 1014.11 1012.33 1010.42 1009.27 1008.38 1007.30 1006.98 1006.90 1007.79 1008.74 1009.58 1011.00 1010.37 1010.73 1011.12 1011.96 1012.45 1013.05 1013.52 1014.02 1014.47 1014.93 1015.36 1015.72 1015.94 1016.11 1016.25 1016.43 1016.65 1016.84 1017.03 1017.14 1017.25 1017.35 1017.44 1017.50 1017.51 1017.53 1017.54 1017.52 1017.52 1017.52 1017.52
1014.43 1014.11 1014.29 1014.99 1015.42 1015.38 1013.51 1011.48 1010.19 1008.67 1008.12 1007.63 1007.71 1007.56 1008.01 1009.13 1009.51 1010.33 1010.84 1011.06 1010.97 1011.74 1012.39 1013.04 1013.56 1013.92 1014.60 1015.05 1015.41 1015.76 1016.03 1016.23 1016.44 1016.66 1016.90 1017.07 1017.21 1017.30 1017.41 1017.55 1017.65 1017.79 1017.85 1017.86 1017.87 1017.88 1017.86 1017.81 1017.75
1014.37 1014.50 1015.34 1015.61 1015.35 1014.41 1012.64 1010.89 1009.89 1008.74 1007.98 1007.91 1008.02 1007.88 1008.35 1008.94 1009.63 1010.00 1010.20 1010.90 1011.12 1011.83 1012.39 1013.03 1013.51 1014.14 1014.71 1015.09 1015.40 1015.77 1016.13 1016.42 1016.61 1016.80 1016.97 1017.15 1017.36 1017.56 1017.65 1017.78 1017.89 1018.03 1018.11 1018.11 1018.08 1018.12 1018.11 1018.07 1018.00
1014.82 1015.13 1016.04 1015.79 1014.99 1013.73 1012.24 1010.97 1010.15 1009.35 1008.19 1007.97 1008.26 1008.74 1008.90 1008.87 1009.02 1009.64 1010.41 1011.09 1011.36 1011.97 1012.45 1013.04 1013.40 1014.31 1014.82 1015.15 1015.45 1015.75 1016.19 1016.58 1016.78 1016.91 1017.08 1017.23 1017.45 1017.72 1017.90 1018.01 1018.13 1018.23 1018.26 1018.29 1018.30 1018.32 1018.32 1018.26 1018.18
1015.34 1016.19 1016.64 1016.28 1015.41 1014.11 1012.57 1011.64 1011.07 1010.49 1009.75 1008.63 1008.79 1009.08 1009.40 1009.45 1009.22 1009.75 1010.48 1011.17 1011.52 1012.25 1012.58 1013.00 1013.81 1014.34 1014.87 1015.18 1015.56 1015.93 1016.29 1016.61 1016.90 1017.07 1017.24 1017.42 1017.61 1017.86 1018.08 1018.21 1018.30 1018.37 1018.40 1018.46 1018.47 1018.47 1018.48 1018.42 1018.30
1016.32 1016.92 1017.35 1016.93 1015.92 1014.50 1013.27 1012.28 1011.67 1010.88 1010.03 1009.23 1009.25 1009.84 1009.85 1009.82 1009.75 1010.24 1010.66 1011.29 1011.73 1012.15 1012.67 1013.00 1014.04 1014.41 1014.85 1015.28 1015.61 1016.05 1016.41 1016.67 1016.93 1017.22 1017.41 1017.61 1017.83 1017.97 1018.19 1018.36 1018.41 1018.47 1018.52 1018.58 1018.62 1018.63 1018.57 1018.52 1018.49
1016.72 1017.48 1017.58 1016.97 1016.13 1015.05 1013.78 1012.77 1012.32 1011.60 1010.69 1009.55 1009.33 1010.04 1010.34 1010.16 1010.04 1010.41 1011.08 1011.60 1012.02 1012.15 1012.59 1013.48 1014.15 1014.60 1014.94 1015.33 1015.67 1016.04 1016.40 1016.76 1017.07 1017.32 1017.52 1017.86 1018.07 1018.18 1018.31 1018.43 1018.49 1018.55 1018.61 1018.71 1018.75 1018.78 1018.76 1018.75 1018.69
1016.86 1017.51 1017.66 1017.02 1016.33 1015.47 1014.11 1013.76 1012.88 1012.26 1011.04 1009.80 1009.24 1009.47 1010.07 1009.90 1010.21 1010.43 1011.20 1011.95 1012.40 1012.46 1013.16 1013.81 1014.34 1014.75 1015.18 1015.52 1015.80 1016.14 1016.46 1016.89 1017.27 1017.56 1017.81 1018.05 1018.32 1018.45 1018.56 1018.67 1018.68 1018.72 1018.78 1018.85 1018.87 1018.85 1018.80 1018.87 1018.85
1016.79 1017.74 1017.86 1016.93 1016.24 1015.72 1014.73 1014.27 1013.30 1012.59 1011.96 1010.55 1010.23 1009.80 1008.66 1008.97 1010.08 1010.76 1011.29 1012.15 1012.55 1012.98 1013.54 1014.08 1014.51 1014.99 1015.39 1015.76 1016.00 1016.36 1016.69 1017.03 1017.53 1017.88 1018.09 1018.38 1018.68 1018.84 1018.91 1018.91 1018.96 1018.95 1018.97 1019.00 1019.00 1018.97 1019.01 1019.10 1019.11
1017.33 1017.96 1017.48 1016.59 1016.25 1015.82 1015.23 1014.76 1013.99 1013.42 1012.42 1011.54 1010.33 1009.67 1008.93 1009.24 1009.72 1010.34 1010.90 1011.64 1012.44 1013.09 1013.82 1014.27 1014.73 1015.20 1015.52 1015.78 1016.34 1016.67 1016.96 1017.28 1017.75 1018.27 1018.40 1018.61 1018.84 1018.97 1019.02 1019.07 1019.13 1019.18 1019.17 1019.18 1019.18 1019.24 1019.33 1019.45 1019.59
1017.39 1017.45 1017.01 1016.48 1015.86 1015.44 1015.17 1014.51 1014.11 1013.75 1012.98 1012.30 1011.92 1011.02 1010.50 1010.09 1010.20 1010.56 1011.10 1011.48 1012.19 1013.04 1013.82 1014.52 1014.91 1015.27 1015.63 1016.08 1016.61 1016.98 1017.28 1017.62 1017.87 1018.41 1018.61 1018.76 1018.99 1019.13 1019.31 1019.42 1019.52 1019.56 1019.55 1019.67 1019.66 1019.76 1019.81 1019.82 1019.84
1017.62 1017.18 1016.85 1016.27 1015.64 1015.42 1015.13 1014.45 1013.87 1013.48 1012.95 1012.46 1012.07 1011.30 1010.79 1010.75 1010.56 1010.74 1011.08 1011.57 1012.20 1012.98 1013.72 1014.64 1015.09 1015.40 1015.79 1016.24 1016.70 1017.12 1017.41 1017.73 1018.05 1018.32 1018.76 1018.92 1019.18 1019.37 1019.58 1019.71 1019.80 1019.84 1019.90 1019.97 1020.02 1020.09 1020.06 1020.03 1020.08
1017.48 1017.09 1016.68 1016.08 1015.45 1015.17 1014.80 1014.50 1013.88 1012.90 1012.75 1012.57 1012.16 1011.75 1011.30 1011.04 1010.84 1010.95 1011.04 1011.48 1012.02 1012.73 1013.45 1014.37 1015.01 1015.48 1015.81 1016.24 1016.77 1017.11 1017.45 1017.66 1017.75 1018.08 1018.85 1018.79 1019.05 1019.40 1019.60 1019.81 1019.93 1019.99 1020.02 1020.10 1020.20 1020.23 1020.25 1020.29 1020.28
1017.43 1017.09 1016.51 1015.96 1015.40 1015.01 1014.68 1014.00 1013.61 1012.37 1012.20 1012.25 1012.29 1011.82 1011.56 1011.18 1010.73 1010.93 1010.96 1011.24 1011.78 1012.26 1013.07 1013.96 1014.85 1015.28 1015.69 1016.12 1016.65 1017.00 1017.29 1017.51 1017.72 1017.84 1018.97 1018.76 1018.98 1019.32 1019.55 1019.80 1019.97 1020.06 1020.11 1020.24 1020.30 1020.40 1020.49 1020.60 1020.56
1017.49 1017.33 1016.60 1015.94 1015.67 1015.08 1014.44 1013.54 1013.17 1012.28 1012.02 1011.94 1011.94 1011.87 1011.34 1011.13 1011.13 1010.71 1010.78 1011.07 1011.42 1012.06 1012.63 1013.52 1014.51 1015.11 1015.53 1015.96 1016.28 1016.75 1017.17 1017.29 1017.65 1017.82 1018.20 1019.07 1018.99 1019.29 1019.62 1019.91 1020.09 1020.15 1020.16 1020.28 1020.39 1020.55 1020.65 1020.73 1020.76
1018.11 1017.91 1017.58 1016.54 1016.22 1015.12 1014.85 1013.42 1013.02 1012.45 1012.31 1011.76 1011.48 1011.57 1011.33 1010.70 1010.56 1010.59 1010.41 1010.49 1011.01 1011.61 1012.23 1013.15 1014.05 1014.89 1015.39 1015.82 1016.25 1016.56 1016.90 1017.20 1017.61 1017.83 1018.07 1018.87 1019.01 1019.23 1019.68 1019.98 1020.16 1020.21 1020.28 1020.42 1020.62 1020.81 1021.06 1021.13 1021.20
1019.07 1018.89 1018.32 1017.42 1016.60 1016.01 1015.72 1014.24 1013.24 1012.62 1012.09 1011.48 1011.35 1011.30 1011.10 1010.46 1010.21 1009.98 1010.15 1010.33 1010.37 1011.06 1011.76 1012.70 1013.73 1014.56 1015.14 1015.67 1016.12 1016.50 1016.86 1017.15 1017.48 1017.84 1018.08 1018.71 1018.93 1019.16 1019.52 1019.87 1020.07 1020.15 1020.38 1020.60 1020.72 1021.12 1021.22 1021.49 1021.54
1019.33 1019.03 1018.52 1017.92 1016.73 1016.24 1015.58 1013.98 1013.11 1012.38 1012.04 1011.14 1010.76 1010.82 1010.83 1010.42 1009.56 1009.36 1009.51 1009.84 1010.32 1010.75 1011.34 1012.24 1013.23 1014.19 1014.92 1015.62 1016.22 1016.71 1017.05 1017.33 1017.55 1017.72 1018.03 1018.67 1018.92 1019.12 1019.46 1019.78 1020.00 1020.17 1020.52 1020.84 1020.96 1021.23 1021.44 1021.71 1021.89
1019.28 1019.16 1018.42 1017.65 1016.96 1016.32 1015.52 1013.53 1012.84 1011.99 1011.34 1010.80 1010.03 1009.82 1010.00 1009.99 1008.92 1008.89 1008.93 1009.31 1009.93 1010.69 1011.50 1012.08 1012.84 1013.71 1014.62 1015.58 1016.25 1016.85 1017.19 1017.50 1017.78 1017.79 1018.10 1018.27 1019.00 1019.08 1019.43 1019.82 1020.08 1020.29 1020.63 1020.97 1021.19 1021.44 1021.67 1021.85 1021.97
1019.15 1019.08 1018.45 1017.73 1016.91 1016.76 1015.28 1012.80 1012.05 1011.37 1010.27 1010.10 1009.50 1008.92 1008.83 1009.17 1008.83 1008.45 1008.66 1009.17 1009.68 1010.07 1010.98 1011.89 1012.63 1013.27 1014.12 1015.00 1015.75 1016.33 1016.84 1017.50 1017.71 1017.84 1018.19 1018.28 1018.98 1019.20 1019.41 1019.72 1020.15 1020.34 1020.69 1021.01 1021.29 1021.56 1022.10 1022.23 1022.14
1018.82 1019.00 1018.42 1017.96 1017.19 1016.48 1015.36 1012.92 1011.52 1010.38 1009.81 1009.02 1008.49 1007.86 1007.70 1007.95 1008.35 1008.10 1008.30 1008.62 1009.37 1010.10 1010.66 1011.36 1012.31 1013.24 1013.84 1014.71 1015.63 1016.46 1016.79 1017.54 1017.99 1018.16 1018.29 1018.62 1018.68 1019.27 1019.50 1019.74 1020.13 1020.45 1020.68 1021.08 1021.33 1021.67 1021.99 1022.55 1022.70
1018.77 1018.36 1018.32 1018.16 1017.93 1017.14 1016.38 1014.38 1011.58 1009.73 1009.09 1008.45 1007.57 1006.99 1006.68 1006.96 1007.21 1007.50 1007.70 1008.25 1008.85 1009.54 1010.50 1011.16 1012.01 1012.84 1013.99 1014.42 1015.40 1016.16 1016.57 1017.36 1017.61 1018.06 1018.28 1018.76 1018.85 1019.25 1019.65 1019.91 1020.30 1020.58 1020.91 1021.23 1021.42 1021.76 1021.94 1022.34 1022.94
1018.64 1018.44 1018.41 1018.26 1017.92 1017.49 1015.95 1015.83 1011.40 1010.18 1008.96 1008.20 1007.05 1006.25 1005.89 1006.01 1006.27 1006.90 1007.16 1007.51 1008.08 1009.24 1010.12 1010.92 1011.84 1012.71 1013.58 1014.27 1015.09 1015.97 1016.65 1017.12 1017.44 1018.10 1018.54 1018.96 1019.19 1019.37 1019.77 1020.00 1020.42 1020.64 1020.97 1021.29 1021.78 1022.00 1022.08 1022.34 1022.93
1018.83 1018.60 1018.25 1018.05 1017.91 1017.20 1015.48 1015.14 1011.88 1010.39 1009.57 1008.26 1007.19 1006.54 1006.08 1005.92 1006.20 1006.54 1006.75 1007.45 1008.43 1009.28 1010.25 1011.11 1011.54 1012.56 1013.41 1014.14 1015.01 1015.84 1016.64 1017.30 1017.79 1018.47 1019.03 1019.40 1019.52 1019.90 1020.08 1020.34 1020.67 1020.61 1020.93 1021.50 1021.85 1022.26 1022.34 1022.53 1022.90
1018.77 1018.72 1019.11 1018.54 1017.89 1016.52 1014.98 1014.60 1011.85 1010.38 1009.55 1008.97 1008.08 1006.97 1006.38 1006.28 1006.16 1006.62 1007.18 1007.89 1008.65 1009.41 1010.28 1011.06 1011.69 1012.53 1013.52 1014.24 1014.96 1015.76 1016.55 1017.16 1017.63 1018.33 1019.03 1019.50 1019.72 1020.24 1020.37 1020.67 1020.95 1021.35 1021.34 1021.51 1021.99 1022.56 1022.65 1022.85 1023.00
1018.70 1018.85 1019.10 1018.94 1018.00 1016.71 1014.92 1013.70 1011.20 1010.24 1009.53 1008.98 1008.30 1007.38 1006.41 1005.87 1006.05 1006.49 1006.88 1007.53 1008.44 1009.52 1010.17 1010.86 1011.64 1012.41 1013.33 1014.09 1014.75 1015.68 1016.76 1017.18 1017.38 1018.35 1018.88 1019.41 1019.69 1020.35 1020.65 1020.49 1021.31 1021.45 1021.82 1021.88 1022.24 1022.80 1022.89 1023.07 1023.22
1018.19 1018.34 1017.78 1017.98 1017.33 1016.68 1014.44 1012.40 1010.62 1010.13 1009.61 1009.08 1008.35 1007.71 1006.99 1006.34 1005.98 1006.48 1007.14 1007.66 1008.29 1009.21 1009.94 1010.78 1011.84 1012.54 1013.17 1013.95 1014.72 1015.97 1016.86 1017.52 1017.76 1018.05 1018.42 1019.08 1019.87 1020.13 1020.89 1021.14 1021.51 1021.62 1022.15 1022.27 1022.36 1022.93 1023.15 1023.35 1023.42
1017.09 1017.44 1017.45 1017.54 1017.11 1016.16 1014.16 1012.77 1011.33 1010.56 1010.27 1009.84 1009.18 1008.61 1007.84 1007.22 1006.96 1007.07 1007.55 1007.91 1008.56 1009.10 1009.97 1010.70 1011.66 1012.19 1013.11 1013.98 1014.89 1015.93 1016.82 1017.70 1017.72 1018.20 1019.45 1019.25 1019.95 1020.70 1021.10 1021.10 1021.84 1022.15 1022.35 1022.68 1022.58 1023.21 1023.38 1023.67 1023.56
1016.94 1016.97 1017.07 1017.23 1016.91 1016.14 1014.76 1012.84 1011.30 1010.97 1010.83 1010.62 1010.03 1009.48 1009.00 1008.52 1007.93 1008.12 1008.00 1008.57 1009.14 1009.55 1010.07 1010.70 1011.69 1012.56 1013.40 1014.28 1015.25 1016.05 1016.91 1017.33 1017.89 1018.24 1019.33 1019.92 1020.46 1020.92 1021.15 1021.45 1022.12 1022.50 1022.63 1022.77 1023.08 1023.52 1023.59 1023.79 1023.77
1015.67 1015.88 1016.24 1016.62 1016.41 1016.14 1015.44 1012.80 1011.17 1010.98 1010.97 1010.79 1010.47 1010.15 1009.82 1009.51 1009.03 1009.04 1009.03 1008.85 1009.59 1010.03 1010.45 1011.15 1011.91 1012.70 1013.62 1014.50 1015.35 1016.34 1017.15 1017.96 1018.41 1018.96 1019.18 1020.46 1020.73 1021.04 1021.35 1021.69 1022.42 1022.69 1022.86 1023.02 1023.44 1023.90 1023.86 1023.89 1024.30
Thickness
5715 5719 5719 5715 5690 5679 5689 5715 5745 5742 5754 5774 5780 5778 5769 5767 5763 5742 5771 5772 5770 5763 5758 5753 5749 5745 5742 5740 5737 5734 5733 5732 5731 5730 5728 5727 5725 5723 5722 5720 5718 5717 5717 5716 5715 5715 5714 5713 5712
5708 5713 5709 5693 5671 5662 5689 5726 5737 5752 5758 5767 5767 5768 5768 5757 5767 5763 5762 5767 5769 5762 5757 5751 5747 5745 5740 5737 5735 5733 5731 5730 5728 5727 5725 5724 5723 5722 5720 5718 5717 5715 5714 5713 5712 5712 5711 5711 5710
5703 5703 5690 5677 5663 5670 5704 5730 5739 5750 5755 5758 5758 5765 5762 5758 5764 5765 5770 5767 5765 5759 5755 5749 5746 5741 5737 5735 5734 5731 5729 5727 5726 5725 5724 5722 5720 5719 5717 5716 5715 5713 5711 5710 5710 5709 5708 5707 5707
5688 5686 5677 5664 5666 5687 5706 5730 5732 5733 5749 5756 5753 5741 5757 5767 5767 5766 5767 5762 5761 5756 5752 5747 5744 5737 5734 5732 5731 5730 5727 5725 5724 5723 5722 5720 5718 5716 5714 5713 5712 5710 5709 5708 5707 5706 5705 5704 5704
5675 5666 5655 5654 5661 5678 5699 5711 5715 5712 5718 5734 5741 5732 5739 5754 5764 5764 5761 5757 5756 5751 5748 5746 5739 5735 5731 5729 5727 5726 5724 5722 5720 5720 5718 5717 5715 5713 5711 5710 5709 5708 5706 5705 5704 5703 5702 5701 5701
5654 5651 5638 5637 5654 5668 5681 5694 5702 5704 5714 5723 5725 5721 5730 5747 5752 5754 5755 5751 5750 5748 5744 5743 5734 5732 5729 5726 5724 5722 5720 5719 5718 5716 5715 5714 5712 5710 5708 5707 5706 5704 5703 5702 5701 5700 5699 5698 5697
5642 5631 5628 5638 5644 5652 5670 5677 5683 5688 5699 5710 5720 5708 5723 5735 5744 5747 5745 5743 5742 5743 5741 5735 5731 5728 5726 5723 5721 5719 5717 5715 5714 5712 5712 5709 5708 5706 5705 5704 5703 5701 5700 5699 5698 5696 5695 5694 5693
5629 5624 5621 5628 5627 5635 5654 5657 5671 5677 5687 5710 5714 5702 5712 5731 5736 5739 5737 5733 5732 5736 5732 5729 5726 5724 5722 5719 5717 5715 5714 5711 5709 5707 5706 5705 5703 5702 5701 5699 5699 5698 5696 5695 5694 5693 5692 5691 5690
5624 5604 5601 5616 5623 5621 5637 5636 5656 5669 5672 5691 5695 5701 5723 5731 5727 5724 5726 5724 5725 5725 5724 5721 5721 5719 5717 5715 5713 5711 5709 5707 5705 5702 5701 5700 5699 5697 5697 5695 5694 5693 5692 5691 5690 5689 5687 5686 5685
5600 5584 5593 5608 5608 5610 5618 5624 5631 5642 5653 5668 5683 5698 5710 5715 5719 5718 5718 5718 5717 5716 5715 5715 5714 5712 5712 5710 5708 5707 5705 5703 5701 5698 5697 5696 5694 5693 5692 5690 5689 5688 5688 5686 5685 5683 5682 5681 5679
5590 5580 5586 5592 5597 5601 5604 5611 5623 5623 5636 5650 5656 5673 5682 5692 5701 5705 5707 5711 5710 5708 5707 5706 5706 5706 5706 5704 5702 5701 5700 5699 5697 5694 5693 5691 5690 5688 5687 5686 5685 5683 5682 5681 5680 5678 5676 5675 5673
5570 5575 5575 5578 5583 5583 5584 5598 5605 5614 5624 5635 5645 5661 5669 5674 5684 5692 5698 5700 5701 5700 5700 5697 5697 5698 5699 5698 5697 5696 5695 5694 5693 5692 5689 5687 5685 5684 5682 5680 5679 5678 5676 5675 5673 5671 5670 5668 5666
5558 5560 5561 5564 5568 5567 5569 5575 5587 5603 5612 5620 5632 5644 5652 5658 5668 5678 5687 5691 5694 5693 5693 5691 5690 5691 5692 5692 5690 5690 5690 5689 5690 5689 5684 5684 5682 5680 5678 5675 5674 5672 5671 5669 5667 5665 5663 5661 5659
5552 5549 5551 5553 5555 5557 5555 5564 5573 5596 5605 5604 5612 5625 5635 5645 5655 5663 5675 5683 5686 5689 5687 5687 5684 5685 5686 5687 5685 5685 5685 5685 5684 5685 5678 5679 5678 5676 5674 5671 5668 5666 5665 5663 5661 5659 5657 5654 5652
5545 5541 5544 5544 5546 5547 5551 5560 5563 5581 5582 5589 5594 5605 5620 5630 5637 5651 5662 5671 5678 5679 5681 5681 5678 5678 5680 5680 5680 5680 5680 5680 5679 5678 5678 5672 5673 5671 5668 5666 5663 5661 5660 5657 5655 5652 5650 5648 5645
5533 5531 5522 5534 5534 5544 5543 5555 5558 5565 5565 5577 5585 5590 5603 5616 5630 5638 5651 5662 5669 5671 5675 5673 5673 5671 5672 5673 5673 5674 5674 5675 5673 5672 5673 5668 5667 5666 5663 5660 5658 5656 5654 5652 5649 5645 5642 5639 5636
5511 5507 5520 5525 5527 5528 5527 5537 5546 5551 5560 5571 5579 5580 5589 5604 5617 5631 5640 5651 5662 5663 5666 5666 5666 5664 5665 5666 5666 5667 5668 5669 5668 5666 5667 5663 5662 5660 5659 5656 5653 5651 5648 5645 5643 5638 5635 5630 5626
5508 5516 5514 5512 5520 5519 5519 5535 5544 5548 5553 5566 5571 5573 5577 5592 5610 5624 5632 5642 5648 5652 5657 5658 5659 5657 5657 5656 5657 5658 5659 5660 5661 5661 5660 5656 5655 5654 5653 5650 5647 5645 5641 5637 5634 5630 5626 5621 5617
5511 5504 5512 5513 5513 5513 5514 5531 5538 5544 5549 5557 5569 5574 5574 5579 5604 5615 5624 5633 5636 5641 5642 5646 5651 5652 5651 5649 5649 5649 5648 5648 5650 5653 5652 5652 5647 5648 5646 5643 5640 5637 5633 5629 5626 5622 5618 5613 5609
5511 5501 5496 5499 5507 5501 5511 5533 5536 5540 5550 5553 5563 5573 5576 5577 5587 5603 5614 5618 5626 5635 5639 5638 5641 5644 5645 5644 5641 5639 5640 5639 5641 5644 5643 5644 5639 5639 5639 5637 5633 5629 5626 5622 5618 5613 5606 5602 5599
5506 5497 5495 5493 5496 5497 5498 5510 5525 5534 5541 5553 5564 5576 5583 5582 5581 5592 5604 5612 5617 5625 5630 5634 5634 5634 5636 5634 5630 5630 5634 5632 5631 5632 5634 5633 5634 5630 5629 5628 5624 5620 5617 5612 5608 5604 5599 5591 5586
5494 5508 5503 5495 5482 5481 5483 5491 5519 5535 5541 5553 5566 5576 5583 5583 5585 5588 5598 5603 5610 5620 5622 5625 5626 5627 5625 5626 5625 5626 5627 5624 5624 5625 5626 5623 5624 5621 5619 5617 5613 5610 5607 5603 5598 5593 5590 5584 5576
5504 5501 5497 5493 5489 5481 5493 5481 5509 5530 5540 5551 5565 5573 5583 5588 5588 5587 5593 5602 5608 5606 5612 5617 5617 5618 5619 5619 5619 5617 5615 5614 5615 5613 5613 5612 5613 5611 5609 5607 5603 5601 5598 5593 5587 5582 5581 5576 5567
5495 5493 5491 5489 5489 5478 5503 5495 5521 5531 5539 5549 5562 5568 5577 5582 5582 5584 5589 5592 5591 5594 5597 5602 5607 5611 5612 5614 5611 5609 5608 5607 5607 5603 5602 5601 5601 5599 5597 5595 5592 5592 5589 5581 5577 5571 5569 5564 5557
5495 5496 5443 5463 5448 5490 5512 5495 5517 5532 5537 5544 5550 5562 5569 5575 5579 5579 5579 5580 5581 5583 5587 5592 5597 5601 5602 5605 5604 5602 5600 5599 5601 5597 5594 5591 5590 5585 5583 5582 5577 5576 5575 5572 5566 5560 5557 5552 5547
5495 5494 5479 5459 5451 5476 5499 5495 5526 5535 5533 5540 5548 5556 5564 5572 5577 5579 5579 5577 5576 5575 5579 5583 5588 5592 5596 5587 5591 5595 5592 5593 5593 5589 5585 5581 5581 5574 5570 5574 5566 5565 5562 5561 5557 5548 5544 5539 5534
5495 5489 5503 5489 5489 5494 5494 5526 5540 5536 5535 5540 5549 5555 5560 5568 5576 5575 5572 5571 5570 5570 5573 5577 5576 5581 5586 5588 5589 5586 5584 5578 5584 5581 5571 5571 5566 5565 5560 5560 5555 5556 5551 5549 5546 5536 5531 5526 5522
5507 5504 5498 5488 5497 5494 5491 5509 5515 5532 5529 5533 5537 5541 5553 5560 5566 5566 5565 5564 5564 5566 5567 5569 5572 5576 5577 5580 5581 5579 5575 5567 5573 5574 5562 5568 5557 5551 5550 5553 5544 5543 5541 5535 5534 5523 5519 5512 5509
5505 5500 5499 5492 5486 5501 5501 5513 5517 5526 5523 5521 5529 5534 5538 5545 5555 5556 5561 5556 5556 5558 5561 5564 5566 5567 5568 5570 5569 5568 5567 5568 5561 5565 5553 5550 5548 5547 5546 5544 5537 5531 5529 5525 5519 5511 5507 5500 5496
5519 5511 5502 5474 5478 5467 5470 5499 5523 5523 5519 5523 5523 5528 5528 5531 5543 5545 5547 5552 5549 5550 5553 5556 5559 5561 5561 5561 5561 5559 5558 5557 5556 5555 5552 5541 5541 5538 5538 5535 5525 5521 5518 5514 5506 5497 5494 5489 5479